Wetbulb
55.52 53.25 51.03 48.61 41.72 38.10 33.66 36.65 39.58 39.60 40.58 42.23 43.53 42.66 43.21 43.59 41.94 38.57 49.66 57.41 60.81 64.31 66.55 71.09 72.68 73.49 73.60 73.59 73.66 73.15 72.79 72.05 71.69 71.25 70.87 70.72 70.65 70.65 71.01 71.84 72.36 71.63 70.72 69.92 69.06 68.74 67.66 66.27 65.60
53.51 53.05 48.47 42.04 36.75 32.11 34.23 37.12 38.28 40.01 41.58 44.70 43.30 42.61 43.24 41.49 45.26 50.58 53.57 58.12 62.24 64.75 68.02 70.37 71.47 73.25 73.65 73.79 73.68 72.99 72.50 72.13 71.57 71.12 70.78 70.69 70.96 70.52 71.09 72.05 71.92 71.42 70.89 70.96 69.16 67.77 66.10 64.84 63.87
52.90 49.60 44.50 37.98 33.04 32.60 34.12 37.79 40.72 41.64 42.86 42.31 44.94 44.54 45.60 42.53 46.51 51.67 54.67 58.50 63.65 64.55 67.43 69.64 71.07 73.06 73.58 73.36 73.49 73.01 72.66 72.40 71.59 71.25 71.03 71.24 71.36 71.32 70.70 71.26 71.35 70.79 70.30 70.12 68.15 66.72 64.72 63.20 61.82
49.83 46.79 42.65 36.29 34.25 35.70 37.94 39.96 39.01 42.15 42.84 44.12 42.65 43.51 43.68 46.57 46.77 51.77 57.47 59.54 61.98 63.59 66.39 68.84 71.35 73.05 73.45 73.22 73.35 72.91 72.24 72.15 72.02 71.56 71.31 71.74 71.79 71.23 71.31 71.35 71.09 70.20 69.63 68.92 67.28 65.42 63.32 61.55 59.93
45.21 41.93 36.70 34.64 34.85 37.09 38.99 41.58 40.37 39.62 43.05 41.12 42.65 41.34 42.47 45.45 53.12 55.10 55.91 59.49 60.38 63.00 65.30 67.14 70.75 72.28 72.99 73.09 73.05 72.98 72.57 72.42 72.35 71.77 71.84 72.22 71.38 70.86 70.88 70.62 69.55 69.35 68.59 66.97 66.18 64.32 62.15 60.00 58.16
43.17 40.02 34.39 31.98 34.60 37.43 40.55 39.97 40.26 38.53 38.90 41.52 43.55 41.81 41.28 46.15 50.87 53.01 56.11 54.09 59.05 62.22 64.72 66.35 67.69 69.83 71.34 72.18 72.52 72.55 72.62 72.51 72.34 72.33 72.26 72.03 71.28 70.10 68.94 68.65 68.61 68.53 68.79 66.13 64.27 63.30 61.01 58.82 56.66
40.69 36.25 33.02 32.66 34.21 36.47 39.09 41.02 42.16 42.12 41.80 42.40 44.41 41.32 43.54 47.90 47.62 48.93 54.80 56.87 57.28 61.25 63.17 64.27 66.09 67.48 67.58 69.51 70.12 71.02 71.49 71.61 71.57 71.42 71.44 70.97 70.54 70.23 68.32 67.98 68.08 66.67 67.10 65.44 64.12 62.52 60.12 58.02 55.45
40.90 38.17 33.44 32.70 34.08 34.82 40.11 40.29 40.68 41.85 39.24 43.69 43.94 40.39 41.41 44.40 48.62 50.44 52.00 52.47 54.41 56.83 60.72 62.36 63.97 68.27 69.19 68.40 66.30 67.59 69.00 69.67 69.97 69.56 68.81 67.41 67.87 67.98 66.46 65.37 66.82 66.80 66.10 64.75 63.64 61.78 59.47 57.62 54.32
40.53 34.99 32.19 35.69 35.34 37.52 40.11 39.93 40.95 41.25 41.65 41.68 42.09 44.72 42.39 45.06 48.91 48.20 47.06 46.78 47.63 51.20 55.41 59.23 62.33 66.59 67.33 68.14 67.28 64.42 66.07 66.93 66.96 66.69 65.63 65.34 65.45 66.36 64.28 62.75 65.01 66.82 66.28 65.02 63.95 61.20 59.12 56.27 51.86
38.40 32.89 34.82 38.23 40.19 40.02 40.22 39.92 40.31 41.17 40.65 41.22 40.52 43.58 42.89 41.86 41.36 41.29 40.43 40.47 41.02 41.82 44.74 46.69 55.01 62.41 65.93 67.07 67.38 67.60 68.46 66.68 66.17 66.66 67.12 66.83 66.33 64.53 63.46 61.12 62.39 64.44 64.12 64.88 64.01 61.02 57.17 48.93 39.02
39.13 35.27 37.84 40.77 41.41 41.15 40.38 39.34 40.45 41.17 38.15 39.41 41.27 41.49 40.58 40.17 39.86 39.64 39.36 38.97 38.95 39.99 41.84 43.12 43.94 48.71 63.42 65.83 66.78 66.89 67.48 67.25 66.69 67.17 66.98 66.09 64.61 62.63 61.94 61.39 61.37 61.49 59.91 59.69 58.29 53.72 49.97 43.95 39.20
38.79 41.06 41.02 43.29 42.88 41.47 39.81 40.81 39.72 40.23 40.28 41.95 39.46 39.36 38.62 38.41 38.15 37.85 37.80 38.22 38.29 39.28 40.63 42.04 42.98 43.87 54.29 64.61 65.60 65.92 65.97 66.18 65.54 65.27 64.69 64.18 62.79 61.84 60.84 60.53 60.21 59.95 58.96 57.52 55.73 52.72 48.82 45.21 41.28
40.30 39.89 41.68 42.96 42.59 42.18 41.66 40.52 40.23 41.58 41.01 40.80 40.55 39.57 37.80 37.40 37.44 37.69 38.02 38.41 38.16 38.40 39.67 41.17 42.36 44.55 47.44 59.07 63.54 63.87 64.32 65.19 65.52 65.04 64.15 63.18 62.09 61.35 60.62 60.11 59.29 58.93 57.44 56.74 54.75 51.25 48.62 45.59 40.94
39.23 40.19 41.01 41.70 40.80 40.36 40.39 37.76 39.30 38.89 39.12 39.15 38.75 36.68 36.42 36.79 36.55 36.75 37.18 37.20 37.58 38.81 39.24 41.01 43.25 46.54 49.60 55.85 60.41 61.54 63.64 63.94 63.91 63.64 63.09 62.61 61.86 59.10 58.97 58.56 56.37 57.72 57.03 55.61 53.77 51.56 48.17 45.19 39.91
39.56 37.49 38.73 38.99 38.48 38.99 40.07 36.51 37.88 39.77 39.54 37.41 36.17 35.11 35.86 36.13 36.26 35.38 36.24 36.18 36.44 37.56 38.73 40.10 43.88 47.61 52.68 56.89 58.90 59.47 61.87 61.99 61.79 61.62 61.32 61.01 61.15 59.61 59.51 58.47 57.41 57.36 55.89 54.05 52.04 49.76 47.04 44.32 39.67
36.30 34.41 32.37 37.27 38.61 38.31 38.25 35.91 39.38 40.21 39.49 35.94 35.19 33.60 34.55 35.59 35.57 35.58 36.21 36.03 36.43 36.54 37.47 39.53 42.19 44.73 52.90 55.81 57.16 57.85 58.81 59.10 59.31 60.08 60.61 60.38 60.66 60.55 58.74 57.69 56.44 56.03 54.47 53.20 51.44 49.06 46.82 44.90 42.09
32.48 30.62 29.98 35.60 38.96 37.50 36.34 35.74 38.67 38.57 38.09 34.84 33.75 33.72 34.46 34.05 34.69 34.93 35.32 35.09 35.53 35.67 36.68 38.12 39.63 40.53 47.51 50.27 52.35 53.26 51.28 49.41 48.76 49.78 52.32 55.43 56.03 57.02 57.24 55.68 54.79 54.61 52.96 51.51 49.85 46.61 45.83 44.83 42.96
30.17 28.86 30.70 31.80 35.21 35.43 33.17 35.74 39.03 39.56 38.29 34.65 32.76 32.32 32.72 32.81 33.07 34.29 34.41 35.03 35.11 35.19 36.16 37.14 38.54 38.76 41.84 47.27 47.57 46.15 44.19 42.89 42.93 42.10 43.10 44.86 47.04 50.87 52.61 52.60 51.87 52.17 51.33 49.65 48.39 46.47 43.09 41.40 40.59
32.63 30.91 31.89 32.78 36.62 34.85 35.72 35.14 38.50 38.72 34.90 32.56 31.73 32.10 32.06 32.21 33.33 33.47 33.53 33.03 33.53 34.29 34.88 35.44 36.37 36.84 39.03 40.98 41.88 41.55 37.75 40.02 39.16 38.74 38.89 39.87 40.73 43.00 45.19 46.81 46.72 47.89 47.33 46.70 45.69 43.51 42.81 41.85 38.87
32.35 30.65 30.86 34.05 35.96 35.29 34.59 34.12 37.29 35.56 34.45 33.84 32.74 31.77 31.83 31.23 31.49 32.29 31.72 31.38 31.30 31.70 32.59 34.06 35.16 35.70 36.95 37.30 37.36 37.73 37.02 36.94 37.38 36.89 35.68 36.11 36.93 37.74 38.70 40.04 41.60 42.26 43.11 41.68 41.43 40.52 40.07 39.74 38.67
31.76 31.26 30.20 32.61 33.70 33.54 31.39 30.90 34.11 33.06 33.82 33.94 33.38 32.66 31.84 30.81 30.23 29.95 30.19 29.39 29.49 29.58 29.84 32.33 33.41 34.58 35.54 36.31 36.87 36.13 35.62 34.42 33.63 32.66 32.29 32.35 33.45 34.49 35.80 35.97 36.57 37.07 38.19 38.54 39.36 40.10 39.10 38.81 38.54
29.85 34.83 34.67 33.10 30.94 28.17 30.92 24.95 30.16 31.75 31.01 31.68 31.31 30.31 30.17 30.30 30.24 29.99 29.24 28.66 28.54 28.68 29.25 30.17 31.30 32.36 33.36 34.13 33.44 31.97 30.80 29.21 29.35 29.37 30.24 30.95 31.44 31.57 32.18 32.70 33.12 33.95 34.62 34.25 35.58 38.06 37.07 36.10 35.30
33.95 35.31 33.71 31.77 29.20 26.43 27.11 25.19 29.34 31.47 30.27 29.94 30.16 29.96 29.61 29.34 29.55 29.35 28.90 29.55 28.60 28.44 27.45 27.68 29.17 29.75 30.15 30.44 31.03 30.46 28.77 28.62 28.11 28.06 28.56 28.67 29.49 30.04 30.36 30.44 30.41 30.55 31.13 31.39 32.06 33.26 34.32 35.62 34.71
35.78 33.66 32.02 29.27 28.09 22.07 28.93 28.53 26.49 28.77 31.17 29.69 30.63 30.48 30.51 30.13 29.70 28.61 29.23 29.11 27.92 27.50 27.35 27.26 27.81 27.79 28.42 28.77 28.42 27.91 27.10 26.47 26.97 26.35 26.66 26.90 27.52 28.10 28.15 28.87 28.53 28.84 28.87 28.87 29.59 29.44 30.46 30.70 32.09
32.46 30.62 25.21 23.07 21.27 23.19 27.29 24.88 29.04 30.48 30.88 31.57 31.70 30.38 30.08 30.05 28.87 28.28 27.45 27.04 27.09 26.79 27.21 28.13 27.24 26.74 26.92 27.24 27.07 26.79 25.98 25.65 25.31 25.16 25.12 25.06 25.21 25.13 25.54 26.19 26.00 26.35 26.69 27.08 27.24 26.33 26.97 27.11 27.42
30.94 31.58 26.24 19.90 19.61 23.08 26.52 24.72 30.65 29.73 30.67 31.40 32.89 31.24 30.36 29.30 29.25 28.74 28.49 27.50 27.01 27.24 26.93 27.14 27.03 26.89 27.22 26.88 26.28 26.18 26.09 26.34 25.71 25.00 24.50 24.56 24.31 24.57 24.72 24.41 24.34 24.51 25.05 25.00 24.71 24.64 24.80 24.78 25.15
30.69 28.65 32.34 26.95 14.88 18.82 26.58 28.62 29.31 29.93 29.04 29.27 29.28 29.83 29.05 29.12 29.18 29.30 29.12 28.05 27.00 26.66 27.12 27.48 27.51 27.38 27.05 26.96 26.71 25.93 25.88 25.15 24.57 24.41 24.44 23.88 24.60 26.11 24.46 24.15 23.65 23.65 23.94 24.15 23.68 23.16 23.08 23.45 23.74
33.02 34.91 27.71 26.25 18.44 17.41 23.80 24.61 28.26 28.95 29.15 28.42 28.48 28.88 29.16 29.59 29.78 29.76 29.60 28.98 28.59 28.96 29.20 28.53 28.51 27.24 26.83 26.82 26.25 25.75 25.49 25.06 24.22 24.21 23.84 23.63 23.93 24.32 24.09 23.88 23.53 23.28 23.31 23.07 22.41 22.36 22.83 22.43 22.23
31.24 29.74 30.34 30.06 27.15 22.43 17.06 24.81 29.51 30.38 29.59 28.71 29.41 30.59 29.84 29.91 30.23 30.17 29.76 29.64 28.77 27.92 26.65 26.08 26.08 26.26 25.72 25.78 24.79 24.47 24.00 23.40 23.33 23.22 22.87 22.91 23.16 23.19 23.31 23.65 23.25 22.78 22.29 22.19 21.18 21.05 21.65 21.02 21.44
31.67 31.60 31.75 28.29 24.27 23.43 24.61 27.96 30.33 30.19 30.54 31.27 30.60 31.13 30.76 30.72 30.34 30.29 30.14 29.20 28.37 27.77 27.04 26.42 25.94 25.57 25.26 24.29 23.98 24.56 23.62 23.53 22.91 22.63 22.90 23.14 22.67 23.34 23.13 23.18 22.66 22.23 21.88 21.76 21.02 20.78 20.73 20.25 20.72
MSLP
1014.19 1014.22 1014.39 1014.98 1016.95 1017.87 1018.12 1017.53 1016.71 1016.17 1015.87 1015.63 1015.46 1015.50 1015.80 1015.87 1016.08 1016.60 1015.90 1015.95 1016.10 1016.22 1016.42 1016.63 1016.93 1017.28 1017.67 1018.02 1018.30 1018.52 1018.70 1018.84 1018.97 1019.14 1019.32 1019.55 1019.66 1019.77 1019.90 1019.96 1020.09 1020.16 1020.24 1020.46 1020.68 1020.90 1020.92 1020.95 1020.89
1014.28 1014.35 1014.93 1016.36 1017.74 1018.74 1018.54 1017.31 1016.56 1016.01 1015.73 1015.51 1015.47 1015.55 1015.71 1015.88 1015.76 1015.80 1015.85 1015.93 1016.08 1016.23 1016.45 1016.72 1016.97 1017.24 1017.54 1017.85 1018.19 1018.47 1018.69 1018.89 1019.08 1019.26 1019.49 1019.67 1019.75 1019.91 1020.08 1020.22 1020.36 1020.44 1020.52 1020.59 1021.06 1021.24 1021.29 1021.30 1021.22
1014.33 1014.67 1016.11 1017.33 1018.67 1018.71 1017.91 1016.95 1016.33 1015.87 1015.62 1015.49 1015.58 1015.57 1015.73 1015.85 1015.78 1015.94 1015.97 1016.04 1016.20 1016.37 1016.47 1016.68 1016.97 1017.24 1017.53 1017.80 1018.07 1018.39 1018.67 1018.85 1019.07 1019.30 1019.51 1019.68 1019.89 1020.03 1020.18 1020.35 1020.51 1020.66 1020.76 1020.86 1021.40 1021.60 1021.64 1021.65 1021.58
1014.71 1015.60 1017.41 1017.86 1018.51 1017.95 1017.35 1016.63 1016.17 1015.82 1015.66 1015.61 1015.73 1015.89 1015.85 1015.74 1015.92 1016.04 1016.05 1016.20 1016.53 1016.68 1016.78 1016.93 1017.14 1017.36 1017.62 1017.82 1018.09 1018.44 1018.74 1018.95 1019.17 1019.37 1019.58 1019.76 1019.97 1020.14 1020.33 1020.50 1020.61 1020.68 1020.92 1021.12 1021.58 1021.83 1021.94 1021.93 1021.90
1015.71 1016.93 1018.09 1018.58 1018.34 1017.65 1017.07 1016.55 1016.23 1016.07 1015.92 1015.82 1015.75 1016.01 1016.08 1015.97 1016.11 1016.12 1016.17 1016.28 1016.46 1016.75 1016.89 1017.07 1017.26 1017.46 1017.70 1017.96 1018.22 1018.52 1018.82 1019.07 1019.30 1019.54 1019.71 1019.82 1020.07 1020.33 1020.51 1020.63 1020.76 1020.89 1020.95 1021.33 1021.79 1021.98 1022.10 1022.12 1022.09
1016.94 1017.90 1018.78 1018.96 1018.20 1017.41 1016.86 1016.44 1016.22 1016.18 1016.06 1015.90 1015.91 1016.09 1016.16 1016.01 1016.07 1016.17 1016.23 1016.28 1016.32 1016.60 1016.69 1016.90 1017.13 1017.41 1017.68 1017.94 1018.22 1018.54 1018.82 1019.06 1019.27 1019.46 1019.62 1019.81 1020.11 1020.40 1020.62 1020.71 1020.80 1020.87 1020.97 1021.33 1021.83 1022.19 1022.32 1022.38 1022.39
1017.44 1018.75 1019.19 1018.73 1018.14 1017.34 1016.79 1016.44 1016.30 1016.19 1016.21 1016.00 1015.98 1016.29 1016.29 1016.29 1016.35 1016.33 1016.64 1016.78 1016.82 1017.02 1017.30 1017.42 1017.47 1017.55 1017.60 1017.78 1018.06 1018.39 1018.70 1018.97 1019.20 1019.39 1019.61 1019.81 1020.06 1020.33 1020.59 1020.76 1020.89 1021.04 1021.19 1021.41 1021.81 1022.32 1022.52 1022.65 1022.64
1017.69 1018.80 1019.28 1018.71 1018.07 1017.29 1016.65 1016.39 1016.26 1016.38 1016.45 1016.25 1016.14 1016.54 1016.85 1016.99 1016.91 1016.84 1017.04 1017.36 1017.45 1017.50 1017.51 1017.62 1017.74 1017.83 1017.97 1018.09 1018.24 1018.41 1018.58 1018.78 1019.03 1019.29 1019.59 1019.84 1020.05 1020.31 1020.59 1020.84 1021.08 1021.23 1021.40 1021.61 1021.89 1022.37 1022.61 1022.79 1022.93
1017.62 1018.66 1019.11 1018.33 1017.88 1017.02 1016.71 1016.63 1016.48 1016.57 1016.69 1016.74 1016.68 1017.05 1017.93 1017.67 1017.47 1017.60 1017.90 1018.01 1018.10 1018.12 1018.08 1017.84 1017.74 1017.81 1017.93 1017.99 1018.19 1018.45 1018.57 1018.77 1018.96 1019.17 1019.47 1019.69 1020.10 1020.38 1020.69 1021.02 1021.19 1021.31 1021.50 1021.73 1022.03 1022.46 1022.73 1022.98 1023.26
1018.05 1018.88 1018.35 1017.65 1017.15 1016.94 1016.82 1016.86 1016.98 1016.97 1017.27 1017.45 1017.56 1017.89 1018.55 1018.67 1018.96 1019.21 1019.61 1019.86 1019.66 1019.36 1018.90 1018.67 1018.17 1017.85 1017.80 1017.92 1018.14 1018.44 1018.60 1018.84 1018.98 1019.06 1019.26 1019.51 1019.79 1020.09 1020.59 1021.01 1021.23 1021.46 1021.66 1021.88 1022.17 1022.58 1023.00 1023.37 1023.72
1018.00 1018.23 1017.94 1017.34 1017.11 1017.00 1017.06 1017.16 1017.29 1017.51 1017.80 1018.33 1018.93 1019.43 1019.96 1020.21 1020.37 1020.64 1020.91 1021.06 1020.90 1020.38 1019.75 1019.38 1019.02 1018.44 1017.69 1017.54 1017.77 1018.16 1018.40 1018.73 1019.02 1018.97 1019.21 1019.57 1020.01 1020.41 1020.68 1021.10 1021.41 1021.61 1021.79 1022.14 1022.44 1022.96 1023.31 1023.55 1023.78
1017.86 1017.74 1017.70 1017.33 1017.23 1017.34 1017.30 1017.31 1017.62 1017.92 1018.36 1019.13 1019.84 1020.30 1020.86 1021.31 1021.54 1021.64 1021.54 1021.38 1021.10 1020.62 1020.15 1019.58 1019.14 1018.76 1018.06 1017.49 1017.44 1017.84 1018.22 1018.54 1018.85 1019.12 1019.31 1019.72 1020.13 1020.50 1020.83 1021.14 1021.42 1021.68 1021.90 1022.17 1022.48 1022.94 1023.30 1023.56 1023.79
1017.81 1017.76 1017.66 1017.47 1017.54 1017.48 1017.43 1017.54 1017.93 1017.92 1018.52 1019.51 1020.32 1021.05 1021.78 1022.18 1022.36 1022.38 1022.24 1021.89 1021.49 1020.95 1020.39 1019.80 1019.15 1018.69 1018.24 1017.70 1017.69 1017.96 1018.34 1018.60 1018.84 1019.06 1019.24 1019.58 1020.02 1020.25 1020.55 1020.92 1021.31 1021.66 1021.88 1022.05 1022.35 1022.84 1023.34 1023.58 1023.68
1017.89 1018.00 1017.86 1017.43 1017.39 1017.49 1017.57 1017.71 1018.06 1018.46 1019.06 1020.21 1021.16 1022.14 1022.74 1023.00 1023.17 1022.95 1022.64 1022.41 1021.97 1021.37 1020.70 1020.04 1019.25 1018.35 1017.88 1017.76 1017.75 1018.19 1018.47 1018.79 1018.99 1019.24 1019.39 1019.57 1019.88 1020.25 1020.50 1020.78 1021.21 1021.53 1021.76 1022.08 1022.44 1022.75 1023.21 1023.60 1023.89
1018.19 1018.44 1018.23 1017.50 1017.43 1017.37 1017.46 1017.77 1018.01 1018.48 1019.34 1020.68 1021.87 1022.78 1023.36 1023.63 1023.49 1023.42 1023.36 1023.08 1022.56 1021.76 1021.02 1020.28 1019.50 1018.79 1017.82 1017.59 1018.14 1018.63 1018.85 1019.21 1019.58 1019.85 1019.91 1019.98 1020.04 1020.10 1020.26 1020.56 1020.93 1021.10 1021.55 1021.95 1022.44 1023.05 1023.25 1023.47 1023.83
1018.91 1019.08 1019.05 1017.75 1017.56 1017.40 1017.68 1017.75 1017.90 1018.50 1019.53 1021.36 1022.62 1023.53 1023.93 1024.31 1024.68 1024.65 1024.15 1023.48 1023.00 1022.50 1021.60 1020.36 1019.70 1019.22 1018.67 1018.38 1018.55 1019.05 1019.56 1019.88 1020.13 1020.30 1020.31 1020.30 1020.33 1020.46 1020.66 1020.96 1021.28 1021.49 1021.75 1022.02 1022.34 1022.85 1023.36 1023.68 1023.90
1020.04 1019.80 1019.55 1018.45 1017.55 1017.62 1017.89 1018.05 1018.12 1018.97 1020.13 1021.91 1023.29 1024.21 1024.56 1024.51 1024.34 1024.46 1024.44 1024.15 1023.62 1022.91 1022.06 1021.35 1020.44 1019.78 1019.56 1019.48 1019.64 1019.97 1020.42 1021.11 1021.68 1021.54 1021.66 1021.65 1021.54 1021.38 1021.31 1021.46 1021.69 1021.85 1022.10 1022.40 1022.81 1023.43 1023.78 1023.92 1024.03
1020.14 1020.26 1019.70 1018.93 1018.22 1018.10 1018.33 1018.32 1018.13 1018.96 1020.03 1021.89 1023.28 1024.14 1024.74 1024.95 1025.05 1024.91 1024.69 1024.40 1024.15 1023.58 1022.88 1022.10 1021.27 1020.77 1020.37 1020.21 1020.50 1021.19 1021.54 1022.35 1022.70 1023.27 1023.08 1022.77 1022.95 1022.56 1022.24 1022.42 1022.55 1022.54 1022.65 1023.07 1023.31 1023.63 1023.98 1024.17 1024.22
1019.56 1019.91 1019.67 1018.76 1018.37 1018.45 1018.44 1018.83 1018.71 1019.03 1020.61 1022.30 1023.62 1024.48 1025.18 1025.42 1025.41 1025.10 1025.06 1024.75 1024.57 1023.96 1023.29 1022.75 1022.27 1021.97 1021.19 1021.19 1021.69 1022.18 1023.54 1023.54 1023.78 1024.04 1024.31 1024.19 1024.12 1023.84 1023.82 1023.59 1023.48 1023.49 1023.56 1023.83 1023.84 1023.98 1024.14 1024.28 1024.29
1019.79 1020.05 1019.82 1019.39 1018.82 1019.13 1018.96 1019.32 1019.16 1019.90 1021.19 1022.39 1023.58 1024.62 1025.24 1025.70 1025.92 1025.90 1025.51 1025.29 1025.06 1025.29 1024.72 1024.04 1023.33 1022.79 1022.48 1022.02 1022.59 1023.51 1024.06 1024.93 1025.30 1025.23 1024.95 1024.89 1024.97 1025.22 1024.92 1024.96 1024.92 1024.58 1024.47 1024.61 1024.68 1024.58 1024.53 1024.59 1024.63
1019.87 1019.91 1019.99 1019.82 1019.50 1019.49 1019.73 1019.79 1019.26 1020.59 1021.62 1022.86 1023.98 1024.82 1025.26 1025.34 1025.54 1026.06 1026.09 1026.11 1025.86 1025.71 1025.92 1025.04 1024.33 1023.87 1023.68 1023.57 1023.29 1023.71 1024.41 1025.36 1025.80 1026.32 1026.23 1026.17 1025.89 1026.10 1026.06 1026.15 1025.98 1025.83 1025.39 1025.51 1025.42 1025.23 1025.25 1025.29 1025.11
1019.57 1019.17 1019.56 1020.08 1020.64 1020.67 1020.29 1020.13 1019.53 1020.26 1021.82 1023.06 1023.93 1024.66 1025.33 1025.81 1026.19 1026.08 1026.04 1025.97 1026.23 1026.46 1026.49 1026.10 1025.51 1024.82 1024.54 1024.41 1024.69 1024.84 1025.50 1026.40 1027.20 1027.39 1027.38 1027.14 1026.85 1026.91 1026.91 1026.78 1026.86 1026.96 1026.94 1026.55 1026.25 1025.99 1026.08 1025.88 1026.09
1018.99 1019.16 1019.90 1020.44 1021.07 1021.30 1021.21 1021.65 1019.32 1019.83 1021.46 1022.73 1024.12 1025.28 1026.18 1026.83 1027.03 1026.76 1026.73 1026.34 1026.53 1026.31 1026.58 1026.56 1026.26 1025.87 1025.74 1025.45 1025.52 1026.02 1026.59 1027.36 1027.65 1027.86 1027.77 1027.80 1027.73 1027.76 1027.70 1027.49 1027.63 1027.57 1027.93 1027.77 1027.31 1026.99 1026.84 1026.96 1026.94
1018.88 1019.78 1020.68 1021.49 1021.77 1021.83 1020.92 1021.18 1019.97 1020.21 1020.54 1022.12 1023.68 1024.71 1025.52 1026.39 1027.03 1027.75 1027.02 1026.77 1026.85 1026.83 1026.77 1026.81 1026.70 1026.56 1026.60 1026.36 1026.54 1026.68 1027.23 1027.98 1028.30 1028.55 1028.73 1029.00 1028.80 1028.63 1028.49 1028.51 1028.48 1028.34 1028.46 1028.75 1028.70 1027.80 1027.63 1027.67 1027.53
1019.01 1020.11 1021.54 1022.49 1022.83 1021.59 1020.86 1021.37 1020.00 1020.31 1020.93 1022.01 1023.22 1024.65 1025.65 1026.25 1026.83 1027.70 1027.70 1027.47 1027.36 1027.31 1027.32 1027.26 1027.32 1027.41 1027.23 1027.17 1027.39 1027.66 1028.07 1028.31 1028.65 1028.91 1029.31 1029.28 1029.39 1029.49 1029.45 1029.50 1029.36 1029.28 1029.36 1028.95 1029.56 1028.91 1028.30 1028.43 1028.25
1018.75 1019.47 1020.74 1022.01 1023.22 1022.47 1021.88 1020.85 1019.67 1020.74 1021.48 1021.86 1022.78 1024.31 1025.50 1026.05 1026.31 1027.20 1027.43 1027.60 1027.81 1027.89 1027.82 1027.67 1027.85 1028.03 1027.84 1027.94 1028.26 1028.37 1028.63 1028.93 1029.26 1029.43 1029.71 1029.86 1029.85 1030.07 1030.02 1029.91 1029.78 1029.74 1029.82 1029.83 1029.66 1029.50 1028.69 1028.72 1028.55
1018.78 1019.43 1019.82 1021.39 1023.12 1022.84 1021.08 1020.68 1020.55 1020.74 1021.28 1022.37 1023.01 1024.13 1025.32 1025.96 1026.14 1026.66 1027.08 1027.37 1027.67 1027.98 1028.09 1028.01 1027.91 1028.07 1028.34 1028.41 1028.77 1028.90 1029.00 1029.25 1029.39 1029.70 1029.81 1029.98 1030.13 1030.12 1030.24 1030.22 1030.24 1030.28 1030.03 1029.80 1029.85 1029.64 1029.08 1028.95 1028.57
1017.74 1018.20 1019.71 1021.17 1022.56 1021.87 1020.27 1020.18 1020.22 1021.23 1021.48 1022.22 1023.06 1023.85 1024.58 1025.35 1025.71 1026.18 1026.82 1027.25 1027.35 1027.53 1027.90 1027.93 1028.10 1028.40 1028.42 1028.46 1028.64 1028.95 1029.27 1029.46 1029.63 1029.70 1030.02 1030.27 1030.54 1030.65 1030.62 1030.64 1030.56 1030.47 1030.22 1030.13 1029.86 1029.45 1029.05 1028.73 1028.32
1018.49 1018.64 1019.33 1020.25 1020.97 1020.77 1020.51 1019.37 1018.91 1019.77 1021.28 1022.00 1022.42 1023.31 1023.94 1024.39 1024.94 1025.70 1026.16 1026.57 1026.80 1027.23 1027.51 1027.90 1028.19 1028.38 1028.49 1028.46 1028.72 1029.15 1029.53 1029.81 1029.93 1030.22 1030.55 1030.68 1030.81 1030.82 1030.82 1030.67 1030.58 1030.34 1030.15 1029.86 1029.69 1029.35 1028.89 1028.53 1028.15
1017.58 1017.80 1018.28 1019.35 1020.28 1020.24 1020.29 1017.97 1019.11 1019.40 1020.02 1021.31 1021.90 1022.53 1023.18 1023.67 1024.11 1025.02 1025.54 1026.11 1026.63 1026.92 1027.34 1027.66 1027.99 1028.28 1028.40 1028.62 1028.87 1029.24 1029.64 1029.93 1030.19 1030.30 1030.47 1030.57 1030.62 1030.63 1030.61 1030.44 1030.36 1030.15 1029.88 1029.60 1029.27 1028.92 1028.60 1028.38 1028.05
Wind_Speed
5 4 3 6 6 7 1 1 1 3 2 1 1 2 2 3 3 3 4 7 4 6 9 11 12 13 11 9 9 8 8 8 8 9 9 9 8 7 6 4 9 10 10 9 8 8 9 10 10
3 2 5 3 7 5 4 4 1 1 1 2 2 2 4 1 1 6 2 5 4 6 8 9 11 12 12 12 10 8 8 7 7 7 6 6 6 6 6 6 7 7 8 12 9 7 8 9 9
2 5 5 6 4 4 3 3 2 3 2 2 2 2 3 2 2 1 3 5 5 6 6 7 11 12 11 10 12 11 10 9 8 7 6 5 6 6 5 4 4 8 9 14 8 7 8 8 9
3 5 5 7 2 2 1 2 3 3 3 4 0 2 4 2 1 2 2 5 4 4 4 6 12 11 11 11 11 11 10 10 9 9 8 8 9 7 6 6 7 7 10 11 6 6 7 8 8
5 4 5 4 3 3 3 2 1 2 1 2 2 2 4 3 2 2 2 4 4 5 5 5 10 11 11 10 10 10 10 10 9 8 8 9 10 9 8 6 3 3 10 8 5 5 6 7 7
5 4 6 2 2 3 3 2 1 1 1 3 2 2 3 3 1 1 2 0 2 5 6 6 9 9 10 11 11 11 11 11 10 9 9 11 11 9 7 6 4 1 0 2 3 4 5 6 6
7 5 4 4 1 1 1 5 2 1 3 2 1 3 3 4 7 2 4 5 6 4 2 2 3 6 9 10 11 11 10 10 9 9 9 8 8 10 7 4 3 1 2 3 2 3 5 5 6
6 6 3 1 1 1 2 3 2 2 1 5 1 2 3 3 7 6 7 7 7 5 3 3 3 5 7 4 7 8 9 9 9 7 6 7 7 9 9 7 4 4 1 2 0 0 3 5 6
3 6 2 4 6 2 1 3 1 1 1 4 3 0 5 9 7 7 7 8 7 6 6 4 3 4 5 9 5 7 8 9 9 7 8 7 2 5 7 5 5 3 3 4 4 3 3 7 8
6 4 7 3 2 2 2 1 4 4 5 2 4 5 11 9 10 10 9 8 8 10 9 7 6 5 5 4 4 4 5 3 4 5 6 3 4 5 6 5 4 2 2 4 5 4 8 6 3
2 3 3 3 4 1 1 1 1 2 3 2 5 6 8 9 10 10 8 6 6 6 6 8 8 8 6 6 4 3 2 2 2 3 3 2 2 3 3 3 2 2 4 3 4 5 3 3 3
1 3 4 3 0 2 2 0 2 4 2 4 7 5 4 9 8 7 8 8 9 9 8 9 8 7 7 6 6 3 3 3 3 2 3 3 2 4 3 3 3 3 3 4 4 2 3 3 2
2 2 1 3 5 6 2 4 5 7 4 8 8 10 9 8 8 6 7 6 8 8 9 9 8 7 6 5 3 2 2 2 3 3 4 3 3 3 4 4 3 3 3 3 4 4 2 1 0
0 3 7 7 3 4 4 1 2 2 6 9 9 8 8 9 9 7 10 9 11 10 11 12 10 7 5 3 5 4 2 0 0 1 1 3 4 4 4 3 4 3 3 2 2 3 3 2 1
1 4 7 5 1 4 6 1 5 4 5 7 6 7 8 8 8 8 7 7 8 7 8 11 12 11 7 5 4 3 3 3 3 3 3 3 2 2 3 4 4 4 4 4 4 2 1 1 1
4 5 4 3 3 0 4 8 3 7 7 5 7 7 7 9 9 10 9 7 9 10 12 9 9 11 11 9 7 6 7 7 7 7 6 7 5 3 1 1 2 2 1 2 2 3 1 1 1
6 4 4 9 3 2 3 7 2 4 6 6 6 6 6 6 9 8 8 8 9 8 8 10 10 11 10 12 11 12 13 11 10 10 10 13 12 9 5 4 4 4 3 3 3 3 3 2 1
6 5 5 6 1 1 1 8 9 6 5 7 7 6 5 6 7 7 9 9 9 9 8 8 8 11 7 7 10 10 11 10 10 11 11 14 12 14 10 8 7 5 4 3 3 3 2 1 2
5 5 6 3 3 2 7 7 13 5 6 7 6 6 6 6 4 6 7 8 9 10 10 10 11 10 7 6 4 7 6 7 10 10 14 14 13 14 12 8 9 8 7 5 4 2 2 1 1
3 4 7 6 3 4 7 9 11 1 2 3 9 7 6 5 5 7 8 8 9 9 9 10 10 10 8 4 4 4 4 7 8 8 12 13 14 13 12 11 9 10 7 8 6 5 3 2 3
5 8 4 8 3 3 2 7 8 3 3 6 6 5 5 7 7 5 6 7 7 9 9 9 8 9 9 7 5 5 5 4 6 9 9 12 13 13 12 12 10 9 8 8 8 8 7 4 3
6 9 7 5 3 5 1 7 5 4 4 4 7 7 7 6 4 4 5 5 6 7 7 8 8 9 9 8 11 15 10 9 3 4 5 8 12 12 12 12 11 10 7 9 7 7 4 4 4
7 5 6 4 3 1 3 2 9 6 6 7 6 5 4 3 3 5 5 6 5 6 6 6 7 10 9 9 9 10 12 7 3 4 8 8 9 11 11 11 11 11 8 8 9 8 9 6 4
7 6 6 5 3 2 10 8 5 5 4 4 5 8 9 7 6 2 3 5 5 6 7 6 7 9 9 10 11 12 12 7 8 7 7 5 5 7 10 9 8 8 8 9 8 7 8 7 4
4 6 2 4 2 7 1 2 6 2 2 1 12 10 8 7 7 5 4 4 5 5 5 6 6 8 7 10 10 9 8 8 8 6 5 6 4 4 7 7 7 6 6 6 6 6 6 6 5
7 8 7 7 3 5 3 7 5 2 4 5 7 10 8 7 7 8 7 6 6 5 5 6 6 7 6 7 8 7 7 5 5 6 4 4 4 4 5 5 6 7 6 6 5 3 4 5 4
6 5 4 5 2 2 5 5 3 1 3 4 8 10 9 8 8 8 7 6 6 5 6 6 6 6 6 7 6 6 6 6 6 6 5 4 5 5 6 7 7 6 6 6 6 4 5 5 4
4 7 4 2 3 6 4 5 6 6 7 6 8 10 9 8 8 7 6 7 6 6 5 5 5 6 6 6 6 5 6 6 6 6 7 6 5 5 6 6 5 5 5 5 5 5 5 5 3
3 2 3 3 4 5 3 6 6 6 8 12 11 10 10 10 9 8 7 8 7 6 6 6 6 6 6 6 6 6 5 6 6 5 4 3 2 3 3 4 4 5 5 5 5 5 6 7 8
3 8 8 7 7 3 2 13 1 3 9 9 8 8 8 9 9 8 8 7 7 7 6 7 6 6 6 6 6 6 6 5 4 4 3 3 4 3 4 4 4 4 5 5 5 7 6 6 9
Wind_Direction
355 22 60 44 57 66 2 319 242 349 24 277 136 107 151 163 142 202 267 198 292 157 170 172 176 176 174 166 154 151 147 141 130 124 122 119 113 105 87 62 113 95 92 81 66 54 53 46 40
351 64 44 77 82 66 281 268 220 267 278 323 101 66 43 348 249 289 17 180 164 157 166 173 175 177 177 168 162 158 155 149 140 129 118 107 101 105 95 87 106 108 103 91 63 53 46 41 39
125 44 78 89 105 147 184 232 259 300 351 41 69 77 146 276 313 255 321 157 138 159 165 175 178 180 179 178 164 164 165 162 160 155 147 135 122 109 114 106 95 99 87 70 54 43 37 31 30
53 15 39 76 83 204 189 263 240 338 19 39 52 46 317 197 292 311 40 125 123 160 165 180 183 185 186 179 171 171 178 176 174 173 172 169 142 118 121 123 134 120 86 76 64 41 32 29 28
35 53 56 73 314 287 273 302 181 40 12 343 343 320 291 3 334 24 78 117 149 171 174 174 190 190 190 185 178 178 187 191 188 189 193 173 145 141 135 130 118 113 89 73 47 37 31 26 27
43 90 61 140 261 292 314 330 139 69 324 333 26 359 276 307 257 116 136 160 194 180 181 181 188 189 192 191 187 190 192 194 193 194 203 170 165 161 159 165 211 48 138 326 344 18 32 25 22
102 75 168 172 244 341 282 320 91 161 14 292 215 358 269 45 330 322 70 37 25 13 334 279 218 210 195 193 190 190 196 198 200 207 206 192 179 173 158 166 122 228 354 49 333 9 31 22 27
101 92 112 229 211 195 304 357 159 137 228 307 260 254 308 358 350 44 34 36 23 24 360 318 300 230 228 225 204 195 196 195 202 203 210 206 193 170 166 163 173 198 189 108 39 76 43 26 20
113 63 163 207 159 211 340 43 197 321 246 339 300 275 15 337 10 37 16 7 7 3 353 328 267 240 242 231 207 215 209 204 209 197 215 212 141 179 170 167 183 190 141 127 115 114 66 60 24
81 104 217 217 203 201 317 68 327 13 357 335 326 18 13 17 27 39 26 8 356 350 343 358 327 255 221 223 225 218 219 227 223 202 213 198 191 165 163 178 170 164 115 119 138 114 89 58 33
124 165 212 262 234 85 324 304 127 318 337 206 299 338 22 23 30 31 18 11 336 314 337 341 334 317 247 219 186 189 193 177 260 252 191 169 124 123 126 136 143 124 120 93 84 82 75 74 57
63 216 196 272 317 26 259 68 256 206 197 96 82 77 49 31 29 22 7 355 349 341 329 328 332 321 283 236 217 165 169 170 181 189 129 137 148 148 152 153 161 159 156 149 136 134 127 95 47
159 289 275 289 275 255 325 233 226 255 122 106 79 55 44 32 19 13 357 348 340 346 330 329 323 323 309 235 207 160 168 202 187 186 159 145 167 173 162 173 168 174 168 177 174 156 158 159 150
267 315 299 290 256 259 225 186 154 6 110 75 64 58 42 36 14 8 12 357 357 342 342 331 331 326 301 248 164 173 163 208 331 5 258 196 185 181 179 160 168 179 188 157 167 172 175 191 319
70 340 326 266 291 247 166 255 216 162 121 88 70 55 47 32 26 25 354 345 342 331 325 350 347 344 7 95 97 85 81 67 33 358 329 304 286 190 172 169 182 194 179 157 131 101 126 169 64
24 57 1 287 169 329 134 264 83 180 139 103 70 49 45 34 21 3 358 357 349 344 352 354 5 9 25 51 65 67 56 54 41 30 30 26 32 33 67 10 352 13 136 148 139 136 199 265 306
3 243 207 311 202 121 150 262 171 142 106 122 84 54 43 27 29 15 360 352 349 345 355 5 10 21 34 53 62 62 60 52 39 37 29 23 28 22 40 49 45 36 55 56 61 48 15 351 336
199 217 242 236 4 97 200 270 289 169 152 143 125 108 79 51 23 2 4 3 354 353 0 13 25 23 26 61 67 60 59 53 48 36 32 33 25 25 32 34 32 32 54 58 64 72 63 1 326
150 177 221 252 237 154 237 245 263 292 107 139 147 123 93 64 11 25 12 7 5 13 19 19 31 12 37 45 45 57 48 50 52 49 39 36 32 32 29 35 34 23 41 31 34 63 49 42 354
126 176 249 289 240 161 269 261 255 322 71 196 157 149 130 107 46 18 20 20 26 5 359 14 31 33 38 60 77 70 83 57 54 44 46 42 39 32 38 33 30 32 35 28 20 24 20 36 19
200 210 205 220 348 254 315 274 252 71 78 61 81 125 144 147 123 64 37 25 21 27 358 13 24 44 45 48 86 92 77 53 43 33 41 36 43 41 40 35 37 33 38 30 20 16 17 4 15
219 194 187 216 111 240 157 273 290 165 115 132 164 170 165 146 114 99 89 68 40 28 5 10 27 45 48 56 74 78 86 89 55 60 50 47 43 44 41 43 41 39 29 33 23 23 15 14 12
227 139 164 160 170 99 267 330 258 144 215 200 197 173 162 160 132 120 95 80 51 52 36 18 35 49 46 57 74 87 86 82 65 53 61 44 41 40 37 41 39 39 29 24 32 29 34 25 21
130 74 46 47 104 247 223 185 265 194 210 144 161 175 171 168 154 139 105 94 70 50 53 41 57 58 51 66 68 79 84 80 75 56 55 31 30 35 33 31 34 39 34 20 7 21 33 24 39
93 94 330 335 333 235 14 167 255 173 65 223 185 174 173 163 160 173 150 126 106 93 81 75 66 70 64 79 77 80 88 89 89 77 67 59 41 26 26 24 28 29 17 28 359 14 34 20 22
177 160 164 223 222 274 349 236 247 338 341 297 168 156 164 170 168 187 185 165 156 145 127 117 108 101 83 83 81 82 85 87 80 75 71 64 60 43 21 27 29 23 16 10 5 353 20 7 7
188 182 161 103 100 33 211 301 272 80 62 87 135 152 179 189 186 192 191 183 174 168 168 155 130 110 102 99 95 84 85 85 84 77 71 61 44 26 19 21 16 6 5 7 355 353 352 347 341
171 164 98 14 265 260 252 250 233 245 216 170 171 186 190 192 194 200 193 191 192 187 173 146 139 137 133 119 108 95 87 84 79 65 56 47 34 21 13 7 4 354 353 345 348 342 325 333 328
139 185 74 131 165 191 274 253 202 222 183 193 196 199 195 193 198 199 196 200 189 178 169 165 156 149 140 125 113 103 91 86 85 84 82 67 52 20 9 359 350 348 342 338 332 324 318 327 319
179 191 165 192 225 247 147 263 37 298 191 185 192 196 197 202 197 198 202 188 187 186 180 182 172 165 165 152 140 138 134 128 108 91 66 39 24 6 354 346 331 325 325 318 314 320 313 300 307